Location: Austin
(30.3000°N, 97.7500°W)
Time: 12:11:34
(UTC-05:00)

Meteor 2-4 Rocket - Pass Details

Date: 03 April 2024
Orbit: 799 x 907 km, 81.2° (Epoch: 21 April)

Event Time Altitude Azimuth Distance (km) Brightness Sun altitude
Rises 06:46:16 0° 198° (SSW) 3,300 6.5 -7.4°
Reaches altitude 10° 06:48:42 10° 204° (SSW) 2,367 5.7 -6.9°
Maximum altitude 06:53:52 52° 280° (W) 990 3.8 -5.8°
Drops below altitude 10° 06:59:05 10° 356° (N) 2,382 6.1 -4.7°
Sets 07:01:33 0° 1° (N) 3,323 6.9 -4.2°
